Time,TemperatureF,DewpointF,PressureIn,WindDirection,WindDirectionDegrees,WindSpeedMPH,WindSpeedGustMPH,Humidity,HourlyPrecipIn,Conditions,Clouds,dailyrainin,SoftwareType,DateUTC
2013-01-16 00:03:00,21.6,15.2,29.95,SW,220,2.0,4.0,76,0.00,,,0.00,HR-IXPWINDi_r2_v1.2.,2013-01-16 06:03:00,
2013-01-16 00:08:00,21.6,15.2,29.95,SW,220,2.0,6.0,76,0.00,,,0.00,HR-IXPWINDi_r2_v1.2.,2013-01-16 06:08:00,
2013-01-16 00:13:00,21.6,15.2,29.95,SW,220,2.0,6.0,76,0.00,,,0.00,HR-IXPWINDi_r2_v1.2.,2013-01-16 06:13:00,
2013-01-16 00:18:00,21.6,15.2,29.94,SW,220,2.0,5.0,76,0.00,,,0.00,HR-IXPWINDi_r2_v1.2.,2013-01-16 06:18:00,
2013-01-16 00:24:00,21.5,15.1,29.94,SW,220,3.0,5.0,76,0.00,,,0.00,HR-IXPWINDi_r2_v1.2.,2013-01-16 06:24:00,
2013-01-16 00:29:00,21.4,15.0,29.94,SW,220,2.0,5.0,76,0.00,,,0.00,HR-IXPWINDi_r2_v1.2.,2013-01-16 06:29:00,
2013-01-16 00:34:00,21.3,14.9,29.93,SW,220,2.0,5.0,76,0.00,,,0.00,HR-IXPWINDi_r2_v1.2.,2013-01-16 06:34:00,
2013-01-16 00:39:00,21.3,15.2,29.93,SW,220,1.0,6.0,77,0.00,,,0.00,HR-IXPWINDi_r2_v1.2.,2013-01-16 06:39:00,
2013-01-16 00:44:00,21.1,15.1,29.92,SW,220,2.0,6.0,77,0.00,,,0.00,HR-IXPWINDi_r2_v1.2.,2013-01-16 06:44:00,
2013-01-16 00:49:00,21.0,15.0,29.92,SW,220,2.0,4.0,77,0.00,,,0.00,HR-IXPWINDi_r2_v1.2.,2013-01-16 06:49:00,
2013-01-16 00:55:00,20.9,14.9,29.92,SW,220,2.0,4.0,77,0.00,,,0.00,HR-IXPWINDi_r2_v1.2.,2013-01-16 06:55:00,
2013-01-16 01:00:00,20.8,14.8,29.92,SW,220,3.0,5.0,77,0.00,,,0.00,HR-IXPWINDi_r2_v1.2.,2013-01-16 07:00:00,
2013-01-16 01:05:00,20.6,14.6,29.91,SW,220,6.0,6.0,77,0.00,,,0.00,HR-IXPWINDi_r2_v1.2.,2013-01-16 07:05:00,
2013-01-16 01:10:00,20.6,14.6,29.91,SW,220,3.0,6.0,77,0.00,,,0.00,HR-IXPWINDi_r2_v1.2.,2013-01-16 07:10:00,
2013-01-16 01:15:00,20.4,14.7,29.90,SW,220,3.0,6.0,78,0.00,,,0.00,HR-IXPWINDi_r2_v1.2.,2013-01-16 07:15:00,
2013-01-16 01:21:00,20.3,14.6,29.90,SW,220,3.0,5.0,78,0.00,,,0.00,HR-IXPWINDi_r2_v1.2.,2013-01-16 07:21:00,
2013-01-16 01:26:00,20.2,14.5,29.90,SW,220,2.0,5.0,78,0.00,,,0.00,HR-IXPWINDi_r2_v1.2.,2013-01-16 07:26:00,
2013-01-16 01:31:00,20.1,14.4,29.89,SW,220,3.0,5.0,78,0.00,,,0.00,HR-IXPWINDi_r2_v1.2.,2013-01-16 07:31:00,
2013-01-16 01:36:00,20.0,14.6,29.89,SW,220,4.0,5.0,79,0.00,,,0.00,HR-IXPWINDi_r2_v1.2.,2013-01-16 07:36:00,
2013-01-16 01:41:00,20.0,14.6,29.88,SW,220,4.0,6.0,79,0.00,,,0.00,HR-IXPWINDi_r2_v1.2.,2013-01-16 07:41:00,
2013-01-16 01:47:00,19.9,14.2,29.88,SW,220,2.0,6.0,78,0.00,,,0.00,HR-IXPWINDi_r2_v1.2.,2013-01-16 07:47:00,
2013-01-16 01:52:00,19.9,14.2,29.88,SW,220,3.0,6.0,78,0.00,,,0.00,HR-IXPWINDi_r2_v1.2.,2013-01-16 07:52:00,
2013-01-16 01:57:00,19.9,14.5,29.87,SW,220,4.0,6.0,79,0.00,,,0.00,HR-IXPWINDi_r2_v1.2.,2013-01-16 07:57:00,
2013-01-16 02:02:00,19.9,14.5,29.87,SW,220,4.0,6.0,79,0.00,,,0.00,HR-IXPWINDi_r2_v1.2.,2013-01-16 08:02:00,
2013-01-16 02:07:00,20.0,14.6,29.87,SW,220,4.0,7.0,79,0.00,,,0.00,HR-IXPWINDi_r2_v1.2.,2013-01-16 08:07:00,
2013-01-16 02:12:00,20.0,14.3,29.87,SW,220,2.0,7.0,78,0.00,,,0.00,HR-IXPWINDi_r2_v1.2.,2013-01-16 08:12:00,
2013-01-16 02:18:00,19.9,14.5,29.87,SW,220,4.0,6.0,79,0.00,,,0.00,HR-IXPWINDi_r2_v1.2.,2013-01-16 08:18:00,
2013-01-16 02:23:00,19.8,14.4,29.87,SW,220,2.0,6.0,79,0.00,,,0.00,HR-IXPWINDi_r2_v1.2.,2013-01-16 08:23:00,
2013-01-16 02:28:00,19.8,14.4,29.86,SW,220,5.0,6.0,79,0.00,,,0.00,HR-IXPWINDi_r2_v1.2.,2013-01-16 08:28:00,
2013-01-16 02:33:00,19.8,14.4,29.85,SW,220,2.0,5.0,79,0.00,,,0.00,HR-IXPWINDi_r2_v1.2.,2013-01-16 08:33:00,
2013-01-16 02:38:00,19.8,14.4,29.84,SW,220,3.0,5.0,79,0.00,,,0.00,HR-IXPWINDi_r2_v1.2.,2013-01-16 08:38:00,
2013-01-16 02:44:00,19.8,14.4,29.83,SW,220,3.0,6.0,79,0.00,,,0.00,HR-IXPWINDi_r2_v1.2.,2013-01-16 08:44:00,
2013-01-16 02:49:00,19.8,14.4,29.83,SW,220,4.0,6.0,79,0.00,,,0.00,HR-IXPWINDi_r2_v1.2.,2013-01-16 08:49:00,
2013-01-16 02:54:00,19.8,14.4,29.82,SW,220,1.0,6.0,79,0.00,,,0.00,HR-IXPWINDi_r2_v1.2.,2013-01-16 08:54:00,
2013-01-16 02:59:00,19.7,14.3,29.82,SW,220,4.0,5.0,79,0.00,,,0.00,HR-IXPWINDi_r2_v1.2.,2013-01-16 08:59:00,
2013-01-16 03:04:00,19.8,14.4,29.82,SW,220,3.0,6.0,79,0.00,,,0.00,HR-IXPWINDi_r2_v1.2.,2013-01-16 09:04:00,
2013-01-16 03:10:00,19.9,14.5,29.81,SW,220,2.0,6.0,79,0.00,,,0.00,HR-IXPWINDi_r2_v1.2.,2013-01-16 09:10:00,
2013-01-16 03:15:00,19.9,14.5,29.81,SW,220,3.0,5.0,79,0.00,,,0.00,HR-IXPWINDi_r2_v1.2.,2013-01-16 09:15:00,
2013-01-16 03:20:00,19.9,14.5,29.80,SW,220,2.0,5.0,79,0.00,,,0.00,HR-IXPWINDi_r2_v1.2.,2013-01-16 09:20:00,
2013-01-16 03:25:00,19.9,14.5,29.80,SW,220,4.0,5.0,79,0.00,,,0.00,HR-IXPWINDi_r2_v1.2.,2013-01-16 09:25:00,
2013-01-16 03:30:00,19.9,14.5,29.79,SW,220,2.0,5.0,79,0.00,,,0.00,HR-IXPWINDi_r2_v1.2.,2013-01-16 09:30:00,
2013-01-16 03:35:00,19.9,14.5,29.79,SW,220,2.0,5.0,79,0.00,,,0.00,HR-IXPWINDi_r2_v1.2.,2013-01-16 09:35:00,
2013-01-16 03:41:00,19.9,14.5,29.78,SW,220,3.0,5.0,79,0.00,,,0.00,HR-IXPWINDi_r2_v1.2.,2013-01-16 09:41:00,
2013-01-16 03:46:00,20.0,14.3,29.78,SW,220,2.0,6.0,78,0.00,,,0.00,HR-IXPWINDi_r2_v1.2.,2013-01-16 09:46:00,
2013-01-16 03:51:00,20.0,14.3,29.77,SW,220,3.0,6.0,78,0.00,,,0.00,HR-IXPWINDi_r2_v1.2.,2013-01-16 09:51:00,
2013-01-16 03:56:00,20.0,14.3,29.76,SW,220,3.0,5.0,78,0.00,,,0.00,HR-IXPWINDi_r2_v1.2.,2013-01-16 09:56:00,
2013-01-16 04:01:00,20.0,14.3,29.76,SW,220,4.0,6.0,78,0.00,,,0.00,HR-IXPWINDi_r2_v1.2.,2013-01-16 10:01:00,
2013-01-16 04:07:00,20.1,14.4,29.75,SW,220,4.0,8.0,78,0.00,,,0.00,HR-IXPWINDi_r2_v1.2.,2013-01-16 10:07:00,
2013-01-16 04:12:00,20.2,14.5,29.74,SW,220,3.0,8.0,78,0.00,,,0.00,HR-IXPWINDi_r2_v1.2.,2013-01-16 10:12:00,
2013-01-16 04:17:00,20.2,14.5,29.74,SW,220,3.0,6.0,78,0.00,,,0.00,HR-IXPWINDi_r2_v1.2.,2013-01-16 10:17:00,
2013-01-16 04:22:00,20.3,14.6,29.73,SW,220,3.0,6.0,78,0.00,,,0.00,HR-IXPWINDi_r2_v1.2.,2013-01-16 10:22:00,
2013-01-16 04:27:00,20.4,14.7,29.72,SW,220,3.0,6.0,78,0.00,,,0.00,HR-IXPWINDi_r2_v1.2.,2013-01-16 10:27:00,
2013-01-16 04:33:00,20.5,14.5,29.72,SW,220,3.0,5.0,77,0.00,,,0.00,HR-IXPWINDi_r2_v1.2.,2013-01-16 10:33:00,
2013-01-16 04:38:00,20.6,14.6,29.72,SW,220,5.0,5.0,77,0.00,,,0.00,HR-IXPWINDi_r2_v1.2.,2013-01-16 10:38:00,
2013-01-16 04:43:00,20.6,14.6,29.72,SW,220,2.0,6.0,77,0.00,,,0.00,HR-IXPWINDi_r2_v1.2.,2013-01-16 10:43:00,
2013-01-16 04:48:00,20.7,14.7,29.71,SW,220,3.0,6.0,77,0.00,,,0.00,HR-IXPWINDi_r2_v1.2.,2013-01-16 10:48:00,
2013-01-16 04:54:00,20.7,14.7,29.71,SW,220,2.0,6.0,77,0.00,,,0.00,HR-IXPWINDi_r2_v1.2.,2013-01-16 10:54:00,
2013-01-16 04:59:00,20.8,14.5,29.70,SW,220,4.0,7.0,76,0.00,,,0.00,HR-IXPWINDi_r2_v1.2.,2013-01-16 10:59:00,
2013-01-16 05:04:00,20.8,14.5,29.69,SW,220,2.0,7.0,76,0.00,,,0.00,HR-IXPWINDi_r2_v1.2.,2013-01-16 11:04:00,
2013-01-16 05:09:00,20.9,14.6,29.69,SW,220,3.0,6.0,76,0.00,,,0.00,HR-IXPWINDi_r2_v1.2.,2013-01-16 11:09:00,
2013-01-16 05:14:00,20.9,14.6,29.69,SW,220,3.0,5.0,76,0.00,,,0.00,HR-IXPWINDi_r2_v1.2.,2013-01-16 11:14:00,
2013-01-16 05:19:00,20.9,14.9,29.69,SW,220,5.0,6.0,77,0.00,,,0.00,HR-IXPWINDi_r2_v1.2.,2013-01-16 11:19:00,
2013-01-16 05:25:00,20.8,15.1,29.70,SW,220,3.0,7.0,78,0.00,,,0.00,HR-IXPWINDi_r2_v1.2.,2013-01-16 11:25:00,
2013-01-16 05:30:00,20.7,15.3,29.69,SW,220,3.0,7.0,79,0.00,,,0.00,HR-IXPWINDi_r2_v1.2.,2013-01-16 11:30:00,
2013-01-16 05:35:00,20.5,15.9,29.69,SW,220,4.0,6.0,82,0.00,,,0.00,HR-IXPWINDi_r2_v1.2.,2013-01-16 11:35:00,
2013-01-16 05:40:00,20.2,15.9,29.68,SW,220,3.0,6.0,83,0.00,,,0.00,HR-IXPWINDi_r2_v1.2.,2013-01-16 11:40:00,
2013-01-16 05:45:00,20.0,16.0,29.68,SW,220,4.0,6.0,84,0.00,,,0.00,HR-IXPWINDi_r2_v1.2.,2013-01-16 11:45:00,
2013-01-16 05:50:00,19.9,16.1,29.68,SW,220,5.0,5.0,85,0.00,,,0.00,HR-IXPWINDi_r2_v1.2.,2013-01-16 11:50:00,
2013-01-16 05:56:00,19.8,16.3,29.67,SW,221,3.0,6.0,86,0.00,,,0.00,HR-IXPWINDi_r2_v1.2.,2013-01-16 11:56:00,
2013-01-16 06:01:00,19.8,16.3,29.67,SW,220,2.0,6.0,86,0.00,,,0.00,HR-IXPWINDi_r2_v1.2.,2013-01-16 12:01:00,
2013-01-16 06:06:00,19.7,16.5,29.67,SW,220,4.0,6.0,87,0.00,,,0.00,HR-IXPWINDi_r2_v1.2.,2013-01-16 12:06:00,
2013-01-16 06:11:00,19.7,16.5,29.66,SW,220,3.0,6.0,87,0.00,,,0.00,HR-IXPWINDi_r2_v1.2.,2013-01-16 12:11:00,
2013-01-16 06:17:00,19.6,16.6,29.66,SW,220,4.0,6.0,88,0.00,,,0.00,HR-IXPWINDi_r2_v1.2.,2013-01-16 12:17:00,
2013-01-16 06:22:00,19.5,16.6,29.65,SW,220,2.0,6.0,88,0.00,,,0.00,HR-IXPWINDi_r2_v1.2.,2013-01-16 12:22:00,
2013-01-16 06:27:00,19.5,16.8,29.65,SW,220,3.0,6.0,89,0.00,,,0.00,HR-IXPWINDi_r2_v1.2.,2013-01-16 12:27:00,
2013-01-16 06:32:00,19.5,16.8,29.65,SW,220,3.0,5.0,89,0.00,,,0.00,HR-IXPWINDi_r2_v1.2.,2013-01-16 12:32:00,
2013-01-16 06:37:00,19.5,16.8,29.65,SW,220,4.0,5.0,89,0.00,,,0.00,HR-IXPWINDi_r2_v1.2.,2013-01-16 12:37:00,
2013-01-16 06:42:00,19.5,17.1,29.66,SW,220,4.0,5.0,90,0.00,,,0.00,HR-IXPWINDi_r2_v1.2.,2013-01-16 12:42:00,
2013-01-16 06:47:00,19.6,17.2,29.66,SW,220,6.0,6.0,90,0.00,,,0.00,HR-IXPWINDi_r2_v1.2.,2013-01-16 12:47:00,
2013-01-16 06:52:00,19.6,17.2,29.66,SW,220,2.0,6.0,90,0.00,,,0.00,HR-IXPWINDi_r2_v1.2.,2013-01-16 12:52:00,
2013-01-16 06:58:00,19.7,17.3,29.67,SW,220,2.0,6.0,90,0.00,,,0.00,HR-IXPWINDi_r2_v1.2.,2013-01-16 12:58:00,
2013-01-16 07:03:00,19.8,17.4,29.66,SW,220,2.0,5.0,90,0.00,,,0.00,HR-IXPWINDi_r2_v1.2.,2013-01-16 13:03:00,
2013-01-16 07:08:00,19.8,17.6,29.66,SW,220,1.0,5.0,91,0.00,,,0.00,HR-IXPWINDi_r2_v1.2.,2013-01-16 13:08:00,
2013-01-16 07:13:00,19.9,17.7,29.67,SW,220,2.0,4.0,91,0.00,,,0.00,HR-IXPWINDi_r2_v1.2.,2013-01-16 13:13:00,
2013-01-16 07:18:00,20.0,17.8,29.67,SW,220,2.0,5.0,91,0.00,,,0.00,HR-IXPWINDi_r2_v1.2.,2013-01-16 13:18:00,
2013-01-16 07:23:00,20.1,17.9,29.67,SW,220,1.0,5.0,91,0.00,,,0.00,HR-IXPWINDi_r2_v1.2.,2013-01-16 13:23:00,
2013-01-16 07:28:00,20.2,18.0,29.67,SW,220,1.0,4.0,91,0.00,,,0.00,HR-IXPWINDi_r2_v1.2.,2013-01-16 13:28:00,
2013-01-16 07:34:00,20.3,18.1,29.68,SW,220,0.0,3.0,91,0.00,,,0.00,HR-IXPWINDi_r2_v1.2.,2013-01-16 13:34:00,
2013-01-16 07:39:00,20.4,18.5,29.67,SW,220,1.0,3.0,92,0.00,,,0.00,HR-IXPWINDi_r2_v1.2.,2013-01-16 13:39:00,
2013-01-16 07:44:00,20.4,18.5,29.67,SW,220,2.0,4.0,92,0.00,,,0.00,HR-IXPWINDi_r2_v1.2.,2013-01-16 13:44:00,
2013-01-16 07:49:00,20.5,18.6,29.67,SW,220,1.0,4.0,92,0.00,,,0.00,HR-IXPWINDi_r2_v1.2.,2013-01-16 13:49:00,
2013-01-16 07:54:00,20.6,18.7,29.67,SW,221,2.0,4.0,92,0.00,,,0.00,HR-IXPWINDi_r2_v1.2.,2013-01-16 13:54:00,
2013-01-16 07:59:00,20.6,18.7,29.67,SW,220,1.0,3.0,92,0.00,,,0.00,HR-IXPWINDi_r2_v1.2.,2013-01-16 13:59:00,
2013-01-16 08:04:00,20.7,18.8,29.67,SW,220,1.0,3.0,92,0.00,,,0.00,HR-IXPWINDi_r2_v1.2.,2013-01-16 14:04:00,
2013-01-16 08:10:00,20.7,18.8,29.67,SW,220,2.0,3.0,92,0.00,,,0.00,HR-IXPWINDi_r2_v1.2.,2013-01-16 14:10:00,
2013-01-16 08:15:00,20.7,18.8,29.67,SW,220,3.0,3.0,92,0.00,,,0.00,HR-IXPWINDi_r2_v1.2.,2013-01-16 14:15:00,
2013-01-16 08:20:00,20.7,18.8,29.67,SW,221,0.0,3.0,92,0.00,,,0.00,HR-IXPWINDi_r2_v1.2.,2013-01-16 14:20:00,
2013-01-16 08:25:00,20.7,18.8,29.67,SW,220,3.0,3.0,92,0.00,,,0.00,HR-IXPWINDi_r2_v1.2.,2013-01-16 14:25:00,
2013-01-16 08:30:00,20.7,18.5,29.67,SW,221,1.0,4.0,91,0.00,,,0.00,HR-IXPWINDi_r2_v1.2.,2013-01-16 14:30:00,
2013-01-16 08:36:00,20.8,18.6,29.67,SW,220,1.0,4.0,91,0.00,,,0.00,HR-IXPWINDi_r2_v1.2.,2013-01-16 14:36:00,
2013-01-16 08:41:00,20.8,18.6,29.67,SW,220,2.0,3.0,91,0.00,,,0.00,HR-IXPWINDi_r2_v1.2.,2013-01-16 14:41:00,
2013-01-16 08:46:00,20.9,18.7,29.68,SW,220,3.0,3.0,91,0.00,,,0.00,HR-IXPWINDi_r2_v1.2.,2013-01-16 14:46:00,
2013-01-16 08:51:00,21.0,18.5,29.68,SW,220,1.0,3.0,90,0.00,,,0.00,HR-IXPWINDi_r2_v1.2.,2013-01-16 14:51:00,
2013-01-16 08:57:00,21.0,18.5,29.68,SW,221,2.0,3.0,90,0.00,,,0.00,HR-IXPWINDi_r2_v1.2.,2013-01-16 14:57:00,
2013-01-16 09:02:00,21.1,18.6,29.68,SW,220,2.0,3.0,90,0.00,,,0.00,HR-IXPWINDi_r2_v1.2.,2013-01-16 15:02:00,
2013-01-16 09:07:00,21.2,18.7,29.68,SW,220,1.0,4.0,90,0.00,,,0.00,HR-IXPWINDi_r2_v1.2.,2013-01-16 15:07:00,
2013-01-16 09:12:00,21.2,18.7,29.68,SW,220,1.0,4.0,90,0.00,,,0.00,HR-IXPWINDi_r2_v1.2.,2013-01-16 15:12:00,
2013-01-16 09:17:00,21.3,18.8,29.68,SW,220,1.0,3.0,90,0.00,,,0.00,HR-IXPWINDi_r2_v1.2.,2013-01-16 15:17:00,
2013-01-16 09:22:00,21.4,18.9,29.68,SW,220,2.0,3.0,90,0.00,,,0.00,HR-IXPWINDi_r2_v1.2.,2013-01-16 15:22:00,
2013-01-16 09:27:00,21.5,19.0,29.68,SW,221,2.0,3.0,90,0.00,,,0.00,HR-IXPWINDi_r2_v1.2.,2013-01-16 15:27:00,
2013-01-16 09:32:00,21.6,19.1,29.68,SW,221,1.0,3.0,90,0.00,,,0.00,HR-IXPWINDi_r2_v1.2.,2013-01-16 15:32:00,
2013-01-16 09:38:00,21.7,19.2,29.68,SW,221,0.0,3.0,90,0.00,,,0.00,HR-IXPWINDi_r2_v1.2.,2013-01-16 15:38:00,
2013-01-16 09:43:00,21.8,19.6,29.69,SW,221,0.0,3.0,91,0.00,,,0.00,HR-IXPWINDi_r2_v1.2.,2013-01-16 15:43:00,
2013-01-16 09:48:00,21.9,19.7,29.68,SW,220,1.0,2.0,91,0.00,,,0.00,HR-IXPWINDi_r2_v1.2.,2013-01-16 15:48:00,
2013-01-16 09:53:00,22.0,19.8,29.68,SW,220,1.0,3.0,91,0.00,,,0.00,HR-IXPWINDi_r2_v1.2.,2013-01-16 15:53:00,
2013-01-16 09:58:00,22.1,19.9,29.68,SW,220,1.0,3.0,91,0.00,,,0.00,HR-IXPWINDi_r2_v1.2.,2013-01-16 15:58:00,
2013-01-16 10:03:00,22.2,20.0,29.69,SW,221,1.0,3.0,91,0.00,,,0.00,HR-IXPWINDi_r2_v1.2.,2013-01-16 16:03:00,
2013-01-16 10:09:00,22.3,20.1,29.69,SW,220,0.0,3.0,91,0.00,,,0.00,HR-IXPWINDi_r2_v1.2.,2013-01-16 16:09:00,
2013-01-16 10:14:00,22.4,20.2,29.69,SSE,168,0.0,3.0,91,0.00,,,0.00,HR-IXPWINDi_r2_v1.2.,2013-01-16 16:14:00,
2013-01-16 10:19:00,22.5,20.3,29.69,SSE,168,1.0,3.0,91,0.00,,,0.00,HR-IXPWINDi_r2_v1.2.,2013-01-16 16:19:00,
2013-01-16 10:24:00,22.7,20.5,29.69,SSE,168,2.0,2.0,91,0.00,,,0.00,HR-IXPWINDi_r2_v1.2.,2013-01-16 16:24:00,
2013-01-16 10:29:00,22.9,20.7,29.69,SSE,168,0.0,2.0,91,0.00,,,0.00,HR-IXPWINDi_r2_v1.2.,2013-01-16 16:29:00,
2013-01-16 10:34:00,23.1,20.9,29.69,WNW,286,2.0,4.0,91,0.00,,,0.00,HR-IXPWINDi_r2_v1.2.,2013-01-16 16:34:00,
2013-01-16 10:40:00,23.2,21.0,29.69,NE,42,0.0,4.0,91,0.00,,,0.00,HR-IXPWINDi_r2_v1.2.,2013-01-16 16:40:00,
2013-01-16 10:45:00,23.4,21.2,29.69,WSW,242,0.0,3.0,91,0.00,,,0.00,HR-IXPWINDi_r2_v1.2.,2013-01-16 16:45:00,
2013-01-16 10:50:00,23.4,21.2,29.70,WNW,284,1.0,3.0,91,0.00,,,0.00,HR-IXPWINDi_r2_v1.2.,2013-01-16 16:50:00,
2013-01-16 10:55:00,23.5,21.3,29.70,SSW,199,1.0,4.0,91,0.00,,,0.00,HR-IXPWINDi_r2_v1.2.,2013-01-16 16:55:00,
2013-01-16 11:00:00,23.6,21.6,29.69,SSW,195,0.0,4.0,92,0.00,,,0.00,HR-IXPWINDi_r2_v1.2.,2013-01-16 17:00:00,
2013-01-16 11:05:00,23.6,21.6,29.70,SW,231,1.0,3.0,92,0.00,,,0.00,HR-IXPWINDi_r2_v1.2.,2013-01-16 17:05:00,
2013-01-16 11:11:00,23.7,21.7,29.70,West,260,2.0,3.0,92,0.00,,,0.00,HR-IXPWINDi_r2_v1.2.,2013-01-16 17:11:00,
2013-01-16 11:16:00,23.8,21.8,29.69,SSW,204,0.0,3.0,92,0.00,,,0.00,HR-IXPWINDi_r2_v1.2.,2013-01-16 17:16:00,
2013-01-16 11:21:00,23.8,22.1,29.69,South,170,0.0,4.0,93,0.00,,,0.00,HR-IXPWINDi_r2_v1.2.,2013-01-16 17:21:00,
2013-01-16 11:26:00,23.9,22.2,29.70,South,170,0.0,4.0,93,0.00,,,0.00,HR-IXPWINDi_r2_v1.2.,2013-01-16 17:26:00,
2013-01-16 11:31:00,23.9,22.2,29.70,WNW,292,1.0,2.0,93,0.00,,,0.00,HR-IXPWINDi_r2_v1.2.,2013-01-16 17:31:00,
2013-01-16 11:37:00,23.9,22.2,29.70,NE,45,0.0,4.0,93,0.00,,,0.00,HR-IXPWINDi_r2_v1.2.,2013-01-16 17:37:00,
2013-01-16 11:42:00,24.0,22.3,29.70,ENE,65,0.0,4.0,93,0.00,,,0.00,HR-IXPWINDi_r2_v1.2.,2013-01-16 17:42:00,
2013-01-16 11:47:00,24.0,22.3,29.70,ENE,71,0.0,3.0,93,0.00,,,0.00,HR-IXPWINDi_r2_v1.2.,2013-01-16 17:47:00,
2013-01-16 11:52:00,24.1,22.4,29.70,West,275,0.0,5.0,93,0.00,,,0.00,HR-IXPWINDi_r2_v1.2.,2013-01-16 17:52:00,
2013-01-16 11:58:00,24.2,22.5,29.70,SE,145,0.0,5.0,93,0.00,,,0.00,HR-IXPWINDi_r2_v1.2.,2013-01-16 17:58:00,
2013-01-16 12:03:00,24.2,22.5,29.70,WNW,296,1.0,7.0,93,0.00,,,0.00,HR-IXPWINDi_r2_v1.2.,2013-01-16 18:03:00,
2013-01-16 12:08:00,24.3,22.6,29.70,SSW,193,1.0,7.0,93,0.00,,,0.00,HR-IXPWINDi_r2_v1.2.,2013-01-16 18:08:00,
2013-01-16 12:13:00,24.3,22.6,29.70,West,277,0.0,3.0,93,0.00,,,0.00,HR-IXPWINDi_r2_v1.2.,2013-01-16 18:13:00,
2013-01-16 12:18:00,24.4,22.7,29.71,SW,230,1.0,3.0,93,0.00,,,0.00,HR-IXPWINDi_r2_v1.2.,2013-01-16 18:18:00,
2013-01-16 12:23:00,24.4,22.9,29.71,East,80,2.0,3.0,94,0.00,,,0.00,HR-IXPWINDi_r2_v1.2.,2013-01-16 18:23:00,
2013-01-16 12:28:00,24.5,22.8,29.70,NE,56,0.0,4.0,93,0.00,,,0.00,HR-IXPWINDi_r2_v1.2.,2013-01-16 18:28:00,
2013-01-16 12:33:00,24.5,22.8,29.70,NNE,15,0.0,4.0,93,0.00,,,0.00,HR-IXPWINDi_r2_v1.2.,2013-01-16 18:33:00,
2013-01-16 12:38:00,24.6,22.9,29.71,ESE,118,1.0,5.0,93,0.00,,,0.00,HR-IXPWINDi_r2_v1.2.,2013-01-16 18:38:00,
2013-01-16 12:44:00,24.7,23.0,29.72,NNE,24,0.0,5.0,93,0.00,,,0.00,HR-IXPWINDi_r2_v1.2.,2013-01-16 18:44:00,
2013-01-16 12:49:00,24.7,23.0,29.72,North,360,0.0,4.0,93,0.00,,,0.00,HR-IXPWINDi_r2_v1.2.,2013-01-16 18:49:00,
2013-01-16 12:54:00,24.8,23.1,29.72,West,270,1.0,5.0,93,0.00,,,0.00,HR-IXPWINDi_r2_v1.2.,2013-01-16 18:54:00,
2013-01-16 12:59:00,24.8,23.1,29.72,NNE,27,0.0,5.0,93,0.00,,,0.00,HR-IXPWINDi_r2_v1.2.,2013-01-16 18:59:00,
2013-01-16 13:04:00,24.8,23.1,29.72,South,187,1.0,3.0,93,0.00,,,0.00,HR-IXPWINDi_r2_v1.2.,2013-01-16 19:04:00,
2013-01-16 13:10:00,24.8,23.1,29.72,NNW,331,0.0,4.0,93,0.00,,,0.00,HR-IXPWINDi_r2_v1.2.,2013-01-16 19:10:00,
2013-01-16 13:15:00,24.9,23.2,29.72,NNE,17,1.0,4.0,93,0.00,,,0.00,HR-IXPWINDi_r2_v1.2.,2013-01-16 19:15:00,
2013-01-16 13:20:00,24.9,23.2,29.72,ESE,103,1.0,4.0,93,0.00,,,0.00,HR-IXPWINDi_r2_v1.2.,2013-01-16 19:20:00,
2013-01-16 13:26:00,24.9,23.2,29.72,SW,236,0.0,5.0,93,0.00,,,0.00,HR-IXPWINDi_r2_v1.2.,2013-01-16 19:26:00,
2013-01-16 13:31:00,25.0,23.3,29.72,NE,52,0.0,5.0,93,0.00,,,0.00,HR-IXPWINDi_r2_v1.2.,2013-01-16 19:31:00,
2013-01-16 13:36:00,25.1,23.4,29.72,NW,313,0.0,4.0,93,0.00,,,0.00,HR-IXPWINDi_r2_v1.2.,2013-01-16 19:36:00,
2013-01-16 13:41:00,25.1,23.1,29.73,West,278,0.0,5.0,92,0.00,,,0.00,HR-IXPWINDi_r2_v1.2.,2013-01-16 19:41:00,
2013-01-16 13:46:00,25.2,23.2,29.73,NE,35,1.0,5.0,92,0.00,,,0.00,HR-IXPWINDi_r2_v1.2.,2013-01-16 19:46:00,
2013-01-16 13:51:00,25.2,23.2,29.74,SSW,196,0.0,3.0,92,0.00,,,0.00,HR-IXPWINDi_r2_v1.2.,2013-01-16 19:51:00,
2013-01-16 13:57:00,25.3,23.3,29.74,WNW,302,1.0,3.0,92,0.00,,,0.00,HR-IXPWINDi_r2_v1.2.,2013-01-16 19:57:00,
2013-01-16 14:02:00,25.3,23.0,29.74,NNW,333,0.0,5.0,91,0.00,,,0.00,HR-IXPWINDi_r2_v1.2.,2013-01-16 20:02:00,
2013-01-16 14:07:00,25.4,23.1,29.74,NW,306,3.0,6.0,91,0.00,,,0.00,HR-IXPWINDi_r2_v1.2.,2013-01-16 20:07:00,
2013-01-16 14:13:00,25.4,22.9,29.75,SW,228,0.0,6.0,90,0.00,,,0.00,HR-IXPWINDi_r2_v1.2.,2013-01-16 20:13:00,
2013-01-16 14:18:00,25.5,23.0,29.75,SSE,156,5.0,6.0,90,0.00,,,0.00,HR-IXPWINDi_r2_v1.2.,2013-01-16 20:18:00,
2013-01-16 14:23:00,25.6,22.8,29.76,NW,315,1.0,7.0,89,0.00,,,0.00,HR-IXPWINDi_r2_v1.2.,2013-01-16 20:23:00,
2013-01-16 14:28:00,25.7,22.9,29.77,SE,138,1.0,7.0,89,0.00,,,0.00,HR-IXPWINDi_r2_v1.2.,2013-01-16 20:28:00,
2013-01-16 14:33:00,25.7,22.6,29.77,East,80,1.0,4.0,88,0.00,,,0.00,HR-IXPWINDi_r2_v1.2.,2013-01-16 20:33:00,
2013-01-16 14:38:00,25.7,22.6,29.77,WNW,290,0.0,4.0,88,0.00,,,0.00,HR-IXPWINDi_r2_v1.2.,2013-01-16 20:38:00,
2013-01-16 14:44:00,25.8,22.7,29.77,North,11,0.0,4.0,88,0.00,,,0.00,HR-IXPWINDi_r2_v1.2.,2013-01-16 20:44:00,
2013-01-16 14:49:00,25.8,22.7,29.77,ESE,121,2.0,2.0,88,0.00,,,0.00,HR-IXPWINDi_r2_v1.2.,2013-01-16 20:49:00,
2013-01-16 14:54:00,25.8,22.5,29.78,NW,317,1.0,2.0,87,0.00,,,0.00,HR-IXPWINDi_r2_v1.2.,2013-01-16 20:54:00,
2013-01-16 14:59:00,25.8,22.7,29.78,NW,322,1.0,2.0,88,0.00,,,0.00,HR-IXPWINDi_r2_v1.2.,2013-01-16 20:59:00,
2013-01-16 15:05:00,25.9,22.6,29.79,NNW,329,0.0,3.0,87,0.00,,,0.00,HR-IXPWINDi_r2_v1.2.,2013-01-16 21:05:00,
2013-01-16 15:10:00,25.9,22.6,29.79,ENE,57,0.0,5.0,87,0.00,,,0.00,HR-IXPWINDi_r2_v1.2.,2013-01-16 21:10:00,
2013-01-16 15:15:00,25.9,22.0,29.79,North,360,1.0,5.0,85,0.00,,,0.00,HR-IXPWINDi_r2_v1.2.,2013-01-16 21:15:00,
2013-01-16 15:20:00,25.9,21.5,29.79,NW,306,0.0,5.0,83,0.00,,,0.00,HR-IXPWINDi_r2_v1.2.,2013-01-16 21:20:00,
2013-01-16 15:25:00,25.9,21.5,29.80,East,86,0.0,5.0,83,0.00,,,0.00,HR-IXPWINDi_r2_v1.2.,2013-01-16 21:25:00,
2013-01-16 15:31:00,25.9,20.9,29.80,ENE,63,0.0,4.0,81,0.00,,,0.00,HR-IXPWINDi_r2_v1.2.,2013-01-16 21:31:00,
2013-01-16 15:36:00,25.9,20.9,29.81,East,84,0.0,4.0,81,0.00,,,0.00,HR-IXPWINDi_r2_v1.2.,2013-01-16 21:36:00,
2013-01-16 15:41:00,25.8,20.2,29.81,NW,307,4.0,4.0,79,0.00,,,0.00,HR-IXPWINDi_r2_v1.2.,2013-01-16 21:41:00,
2013-01-16 15:46:00,25.8,20.5,29.82,WNW,286,0.0,4.0,80,0.00,,,0.00,HR-IXPWINDi_r2_v1.2.,2013-01-16 21:46:00,
2013-01-16 15:51:00,25.7,20.4,29.82,NW,304,0.0,4.0,80,0.00,,,0.00,HR-IXPWINDi_r2_v1.2.,2013-01-16 21:51:00,
2013-01-16 15:56:00,25.6,19.4,29.83,WSW,243,0.0,7.0,77,0.00,,,0.00,HR-IXPWINDi_r2_v1.2.,2013-01-16 21:56:00,
2013-01-16 16:01:00,25.5,19.0,29.84,West,268,1.0,7.0,76,0.00,,,0.00,HR-IXPWINDi_r2_v1.2.,2013-01-16 22:01:00,
2013-01-16 16:06:00,25.5,19.0,29.84,NE,51,0.0,5.0,76,0.00,,,0.00,HR-IXPWINDi_r2_v1.2.,2013-01-16 22:06:00,
2013-01-16 16:11:00,25.3,18.2,29.83,NNW,344,0.0,6.0,74,0.00,,,0.00,HR-IXPWINDi_r2_v1.2.,2013-01-16 22:11:00,
2013-01-16 16:17:00,25.2,17.8,29.84,North,360,0.0,6.0,73,0.00,,,0.00,HR-IXPWINDi_r2_v1.2.,2013-01-16 22:17:00,
2013-01-16 16:22:00,25.0,17.9,29.85,West,275,3.0,5.0,74,0.00,,,0.00,HR-IXPWINDi_r2_v1.2.,2013-01-16 22:22:00,
2013-01-16 16:27:00,24.7,17.3,29.85,WNW,290,1.0,7.0,73,0.00,,,0.00,HR-IXPWINDi_r2_v1.2.,2013-01-16 22:27:00,
2013-01-16 16:32:00,24.5,17.4,29.86,NW,311,1.0,7.0,74,0.00,,,0.00,HR-IXPWINDi_r2_v1.2.,2013-01-16 22:32:00,
2013-01-16 16:38:00,24.3,17.2,29.86,NNE,12,0.0,5.0,74,0.00,,,0.00,HR-IXPWINDi_r2_v1.2.,2013-01-16 22:38:00,
2013-01-16 16:43:00,24.2,17.4,29.86,West,265,1.0,5.0,75,0.00,,,0.00,HR-IXPWINDi_r2_v1.2.,2013-01-16 22:43:00,
2013-01-16 16:48:00,24.1,17.7,29.86,NNE,26,0.0,2.0,76,0.00,,,0.00,HR-IXPWINDi_r2_v1.2.,2013-01-16 22:48:00,
2013-01-16 16:53:00,24.0,18.2,29.87,NW,322,1.0,5.0,78,0.00,,,0.00,HR-IXPWINDi_r2_v1.2.,2013-01-16 22:53:00,
2013-01-16 16:59:00,23.8,18.3,29.88,ESE,108,4.0,5.0,79,0.00,,,0.00,HR-IXPWINDi_r2_v1.2.,2013-01-16 22:59:00,
2013-01-16 17:04:00,23.7,17.9,29.88,ENE,65,3.0,8.0,78,0.00,,,0.00,HR-IXPWINDi_r2_v1.2.,2013-01-16 23:04:00,
2013-01-16 17:09:00,23.4,17.6,29.89,NNW,328,2.0,8.0,78,0.00,,,0.00,HR-IXPWINDi_r2_v1.2.,2013-01-16 23:09:00,
2013-01-16 17:14:00,23.2,17.1,29.89,NNE,20,1.0,8.0,77,0.00,,,0.00,HR-IXPWINDi_r2_v1.2.,2013-01-16 23:14:00,
2013-01-16 17:19:00,23.0,16.9,29.90,NE,56,0.0,7.0,77,0.00,,,0.00,HR-IXPWINDi_r2_v1.2.,2013-01-16 23:19:00,
2013-01-16 17:24:00,22.7,16.6,29.91,West,269,1.0,6.0,77,0.00,,,0.00,HR-IXPWINDi_r2_v1.2.,2013-01-16 23:24:00,
2013-01-16 17:29:00,22.4,16.6,29.91,North,355,1.0,4.0,78,0.00,,,0.00,HR-IXPWINDi_r2_v1.2.,2013-01-16 23:29:00,
2013-01-16 17:34:00,22.2,16.4,29.91,North,5,0.0,4.0,78,0.00,,,0.00,HR-IXPWINDi_r2_v1.2.,2013-01-16 23:34:00,
2013-01-16 17:39:00,21.9,15.8,29.92,East,82,3.0,4.0,77,0.00,,,0.00,HR-IXPWINDi_r2_v1.2.,2013-01-16 23:39:00,
2013-01-16 17:44:00,21.7,15.6,29.93,NW,323,1.0,5.0,77,0.00,,,0.00,HR-IXPWINDi_r2_v1.2.,2013-01-16 23:44:00,
2013-01-16 17:50:00,21.5,15.4,29.93,North,355,2.0,5.0,77,0.00,,,0.00,HR-IXPWINDi_r2_v1.2.,2013-01-16 23:50:00,
2013-01-16 17:55:00,21.2,14.2,29.94,West,263,1.0,7.0,74,0.00,,,0.00,HR-IXPWINDi_r2_v1.2.,2013-01-16 23:55:00,
2013-01-16 18:00:00,21.0,13.7,29.94,North,9,2.0,7.0,73,0.00,,,0.00,HR-IXPWINDi_r2_v1.2.,2013-01-17 00:00:00,
2013-01-16 18:05:00,20.8,13.2,29.94,East,97,0.0,7.0,72,0.00,,,0.00,HR-IXPWINDi_r2_v1.2.,2013-01-17 00:05:00,
2013-01-16 18:10:00,20.7,13.5,29.95,East,98,1.0,4.0,73,0.00,,,0.00,HR-IXPWINDi_r2_v1.2.,2013-01-17 00:10:00,
2013-01-16 18:15:00,20.7,13.5,29.95,NNE,30,0.0,4.0,73,0.00,,,0.00,HR-IXPWINDi_r2_v1.2.,2013-01-17 00:15:00,
2013-01-16 18:20:00,20.6,13.0,29.96,ESE,119,0.0,5.0,72,0.00,,,0.00,HR-IXPWINDi_r2_v1.2.,2013-01-17 00:20:00,
2013-01-16 18:25:00,20.5,13.0,29.96,ESE,121,2.0,5.0,72,0.00,,,0.00,HR-IXPWINDi_r2_v1.2.,2013-01-17 00:25:00,
2013-01-16 18:30:00,20.4,12.9,29.97,NW,325,0.0,5.0,72,0.00,,,0.00,HR-IXPWINDi_r2_v1.2.,2013-01-17 00:30:00,
2013-01-16 18:36:00,20.3,12.8,29.97,North,349,1.0,6.0,72,0.00,,,0.00,HR-IXPWINDi_r2_v1.2.,2013-01-17 00:36:00,
2013-01-16 18:41:00,20.2,12.7,29.97,SE,129,0.0,6.0,72,0.00,,,0.00,HR-IXPWINDi_r2_v1.2.,2013-01-17 00:41:00,
2013-01-16 18:46:00,20.1,12.6,29.98,ESE,106,4.0,6.0,72,0.00,,,0.00,HR-IXPWINDi_r2_v1.2.,2013-01-17 00:46:00,
2013-01-16 18:51:00,20.0,12.5,29.98,SE,125,1.0,6.0,72,0.00,,,0.00,HR-IXPWINDi_r2_v1.2.,2013-01-17 00:51:00,
2013-01-16 18:57:00,20.0,12.5,29.98,SW,236,1.0,6.0,72,0.00,,,0.00,HR-IXPWINDi_r2_v1.2.,2013-01-17 00:57:00,
2013-01-16 19:02:00,19.9,12.1,29.99,WNW,300,0.0,5.0,71,0.00,,,0.00,HR-IXPWINDi_r2_v1.2.,2013-01-17 01:02:00,
2013-01-16 19:07:00,19.8,12.3,29.99,NW,304,3.0,4.0,72,0.00,,,0.00,HR-IXPWINDi_r2_v1.2.,2013-01-17 01:07:00,
2013-01-16 19:12:00,19.7,11.5,30.00,WNW,283,1.0,4.0,70,0.00,,,0.00,HR-IXPWINDi_r2_v1.2.,2013-01-17 01:12:00,
2013-01-16 19:17:00,19.6,11.5,30.00,NNE,13,2.0,4.0,70,0.00,,,0.00,HR-IXPWINDi_r2_v1.2.,2013-01-17 01:17:00,
2013-01-16 19:22:00,19.6,11.8,30.00,NE,42,1.0,6.0,71,0.00,,,0.00,HR-IXPWINDi_r2_v1.2.,2013-01-17 01:22:00,
2013-01-16 19:27:00,19.6,12.1,30.01,NNW,348,4.0,6.0,72,0.00,,,0.00,HR-IXPWINDi_r2_v1.2.,2013-01-17 01:27:00,
2013-01-16 19:32:00,19.5,11.7,30.01,WNW,293,0.0,6.0,71,0.00,,,0.00,HR-IXPWINDi_r2_v1.2.,2013-01-17 01:32:00,
2013-01-16 19:38:00,19.5,11.7,30.01,West,281,0.0,5.0,71,0.00,,,0.00,HR-IXPWINDi_r2_v1.2.,2013-01-17 01:38:00,
2013-01-16 19:43:00,19.4,11.9,30.01,NE,46,1.0,4.0,72,0.00,,,0.00,HR-IXPWINDi_r2_v1.2.,2013-01-17 01:43:00,
2013-01-16 19:48:00,19.4,11.9,30.01,ESE,119,0.0,3.0,72,0.00,,,0.00,HR-IXPWINDi_r2_v1.2.,2013-01-17 01:48:00,
2013-01-16 19:53:00,19.3,12.1,30.01,SSW,200,1.0,2.0,73,0.00,,,0.00,HR-IXPWINDi_r2_v1.2.,2013-01-17 01:53:00,
2013-01-16 19:59:00,19.1,11.0,30.01,NW,321,0.0,5.0,70,0.00,,,0.00,HR-IXPWINDi_r2_v1.2.,2013-01-17 01:59:00,
2013-01-16 20:04:00,19.1,11.3,30.02,NW,313,2.0,5.0,71,0.00,,,0.00,HR-IXPWINDi_r2_v1.2.,2013-01-17 02:04:00,
2013-01-16 20:09:00,19.1,11.6,30.02,West,263,0.0,5.0,72,0.00,,,0.00,HR-IXPWINDi_r2_v1.2.,2013-01-17 02:09:00,
2013-01-16 20:14:00,19.0,11.2,30.02,ESE,103,2.0,5.0,71,0.00,,,0.00,HR-IXPWINDi_r2_v1.2.,2013-01-17 02:14:00,
2013-01-16 20:19:00,18.9,11.1,30.03,NW,304,3.0,6.0,71,0.00,,,0.00,HR-IXPWINDi_r2_v1.2.,2013-01-17 02:19:00,
2013-01-16 20:24:00,18.8,11.6,30.03,ENE,60,0.0,6.0,73,0.00,,,0.00,HR-IXPWINDi_r2_v1.2.,2013-01-17 02:24:00,
2013-01-16 20:29:00,18.8,12.2,30.04,NNE,26,1.0,7.0,75,0.00,,,0.00,HR-IXPWINDi_r2_v1.2.,2013-01-17 02:29:00,
2013-01-16 20:35:00,18.6,12.3,30.03,ESE,111,1.0,7.0,76,0.00,,,0.00,HR-IXPWINDi_r2_v1.2.,2013-01-17 02:35:00,
2013-01-16 20:40:00,18.5,12.5,30.05,SW,219,1.0,4.0,77,0.00,,,0.00,HR-IXPWINDi_r2_v1.2.,2013-01-17 02:40:00,
2013-01-16 20:45:00,18.2,13.1,30.04,NNE,12,0.0,5.0,80,0.00,,,0.00,HR-IXPWINDi_r2_v1.2.,2013-01-17 02:45:00,
2013-01-16 20:50:00,18.0,13.5,30.05,WNW,285,0.0,5.0,82,0.00,,,0.00,HR-IXPWINDi_r2_v1.2.,2013-01-17 02:50:00,
2013-01-16 20:55:00,17.7,13.5,30.05,ENE,78,0.0,3.0,83,0.00,,,0.00,HR-IXPWINDi_r2_v1.2.,2013-01-17 02:55:00,
2013-01-16 21:00:00,17.6,13.4,30.06,West,259,0.0,3.0,83,0.00,,,0.00,HR-IXPWINDi_r2_v1.2.,2013-01-17 03:00:00,
2013-01-16 21:05:00,17.5,13.5,30.07,WSW,242,0.0,3.0,84,0.00,,,0.00,HR-IXPWINDi_r2_v1.2.,2013-01-17 03:05:00,
2013-01-16 21:11:00,17.5,13.8,30.07,NE,37,1.0,2.0,85,0.00,,,0.00,HR-IXPWINDi_r2_v1.2.,2013-01-17 03:11:00,
2013-01-16 21:16:00,17.3,13.6,30.07,ESE,109,0.0,2.0,85,0.00,,,0.00,HR-IXPWINDi_r2_v1.2.,2013-01-17 03:16:00,
2013-01-16 21:21:00,17.3,13.6,30.07,ESE,109,0.0,2.0,85,0.00,,,0.00,HR-IXPWINDi_r2_v1.2.,2013-01-17 03:21:00,
2013-01-16 21:26:00,17.0,13.3,30.07,NE,41,0.0,3.0,85,0.00,,,0.00,HR-IXPWINDi_r2_v1.2.,2013-01-17 03:26:00,
2013-01-16 21:31:00,16.8,13.1,30.08,SSE,147,2.0,5.0,85,0.00,,,0.00,HR-IXPWINDi_r2_v1.2.,2013-01-17 03:31:00,
2013-01-16 21:36:00,16.6,12.9,30.08,WSW,244,3.0,5.0,85,0.00,,,0.00,HR-IXPWINDi_r2_v1.2.,2013-01-17 03:36:00,
2013-01-16 21:42:00,16.4,11.9,30.08,WSW,248,0.0,5.0,82,0.00,,,0.00,HR-IXPWINDi_r2_v1.2.,2013-01-17 03:42:00,
2013-01-16 21:47:00,16.3,11.8,30.08,ESE,103,0.0,5.0,82,0.00,,,0.00,HR-IXPWINDi_r2_v1.2.,2013-01-17 03:47:00,
2013-01-16 21:53:00,16.0,11.3,30.08,WNW,282,0.0,5.0,81,0.00,,,0.00,HR-IXPWINDi_r2_v1.2.,2013-01-17 03:53:00,
2013-01-16 21:58:00,15.8,11.1,30.08,North,5,0.0,5.0,81,0.00,,,0.00,HR-IXPWINDi_r2_v1.2.,2013-01-17 03:58:00,
2013-01-16 22:03:00,15.6,11.1,30.09,NE,48,0.0,3.0,82,0.00,,,0.00,HR-IXPWINDi_r2_v1.2.,2013-01-17 04:03:00,
2013-01-16 22:08:00,15.4,10.4,30.09,ENE,67,0.0,4.0,80,0.00,,,0.00,HR-IXPWINDi_r2_v1.2.,2013-01-17 04:08:00,
2013-01-16 22:14:00,15.3,10.0,30.09,NNW,345,2.0,4.0,79,0.00,,,0.00,HR-IXPWINDi_r2_v1.2.,2013-01-17 04:14:00,
2013-01-16 22:19:00,15.2,10.2,30.10,North,355,2.0,3.0,80,0.00,,,0.00,HR-IXPWINDi_r2_v1.2.,2013-01-17 04:19:00,
2013-01-16 22:24:00,15.2,10.2,30.10,North,355,1.0,2.0,80,0.00,,,0.00,HR-IXPWINDi_r2_v1.2.,2013-01-17 04:24:00,
2013-01-16 22:29:00,15.0,10.0,30.11,East,79,0.0,2.0,80,0.00,,,0.00,HR-IXPWINDi_r2_v1.2.,2013-01-17 04:29:00,
2013-01-16 22:34:00,14.8,9.5,30.10,ENE,78,0.0,2.0,79,0.00,,,0.00,HR-IXPWINDi_r2_v1.2.,2013-01-17 04:34:00,
2013-01-16 22:40:00,14.6,9.6,30.10,East,79,0.0,3.0,80,0.00,,,0.00,HR-IXPWINDi_r2_v1.2.,2013-01-17 04:40:00,
2013-01-16 22:45:00,14.5,9.5,30.10,WNW,287,0.0,3.0,80,0.00,,,0.00,HR-IXPWINDi_r2_v1.2.,2013-01-17 04:45:00,
2013-01-16 22:50:00,14.3,9.0,30.10,WNW,282,0.0,3.0,79,0.00,,,0.00,HR-IXPWINDi_r2_v1.2.,2013-01-17 04:50:00,
2013-01-16 22:55:00,14.1,9.1,30.10,NE,50,0.0,4.0,80,0.00,,,0.00,HR-IXPWINDi_r2_v1.2.,2013-01-17 04:55:00,
2013-01-16 23:01:00,13.9,8.9,30.11,ESE,104,0.0,4.0,80,0.00,,,0.00,HR-IXPWINDi_r2_v1.2.,2013-01-17 05:01:00,
2013-01-16 23:06:00,13.8,9.1,30.10,NNW,333,2.0,2.0,81,0.00,,,0.00,HR-IXPWINDi_r2_v1.2.,2013-01-17 05:06:00,
2013-01-16 23:11:00,13.7,8.7,30.11,West,279,0.0,2.0,80,0.00,,,0.00,HR-IXPWINDi_r2_v1.2.,2013-01-17 05:11:00,
2013-01-16 23:17:00,13.5,8.0,30.11,WNW,300,0.0,2.0,78,0.00,,,0.00,HR-IXPWINDi_r2_v1.2.,2013-01-17 05:17:00,
2013-01-16 23:22:00,13.5,7.7,30.11,NNE,22,1.0,2.0,77,0.00,,,0.00,HR-IXPWINDi_r2_v1.2.,2013-01-17 05:22:00,
2013-01-16 23:27:00,13.4,7.3,30.12,WNW,288,1.0,3.0,76,0.00,,,0.00,HR-IXPWINDi_r2_v1.2.,2013-01-17 05:27:00,
2013-01-16 23:32:00,13.2,6.5,30.13,WNW,292,2.0,3.0,74,0.00,,,0.00,HR-IXPWINDi_r2_v1.2.,2013-01-17 05:32:00,
2013-01-16 23:38:00,13.1,6.1,30.13,NNE,21,0.0,2.0,73,0.00,,,0.00,HR-IXPWINDi_r2_v1.2.,2013-01-17 05:38:00,
2013-01-16 23:43:00,13.0,6.1,30.14,South,171,1.0,4.0,73,0.00,,,0.00,HR-IXPWINDi_r2_v1.2.,2013-01-17 05:43:00,
2013-01-16 23:48:00,12.9,6.0,30.14,North,355,1.0,4.0,73,0.00,,,0.00,HR-IXPWINDi_r2_v1.2.,2013-01-17 05:48:00,
2013-01-16 23:53:00,12.8,5.3,30.14,SSW,198,0.0,4.0,71,0.00,,,0.00,HR-IXPWINDi_r2_v1.2.,2013-01-17 05:53:00,
2013-01-16 23:58:00,12.6,5.1,30.15,SW,236,0.0,3.0,71,0.00,,,0.00,HR-IXPWINDi_r2_v1.2.,2013-01-17 05:58:00,